Location: Dalton
(34.7700°N, 84.9700°W)
Time: 10:23:38
(UTC-04:00)

Envisat - Pass Details

Date: 11 October 2017
Orbit: 764 x 766 km, 98.2° (Epoch: 20 October)

Event Time Altitude Azimuth Distance (km) Brightness Sun altitude
Exits shadow 20:30:43 18° 47° (NE) 1,811 4.5 -17.4°
Drops below altitude 10° 20:33:00 10° 22° (NNE) 2,306 5.3 -17.9°
Sets 20:35:51 0° 6° (N) 3,236 6.2 -18.4°
